Flag for Germany Weather past 2 weeks in Gotha, Thuringia, Germany

Now
40 °F

Overcast.


Feels Like: 31 °F
Forecast: 33 / 39 °F
Wind: 16 mph from West

Location: Erfurt-Bindersleben

Current Time: Dec 20, 2014 at 12:40:25 PM

Latest Report: Dec 20, 2014 at 12:00 PM


Visibility: 19 mi

Pressure: 30.03 "Hg

Humidity: 76%

Dew point: 33 °F

Location of GothaLocation

Historic Weather in Gotha — Graph

°F

Gotha temperature yesterday

Maximum temperature yesterday: 53 °F (at 12:00 AM)
Minimum temperature yesterday: 39 °F (at 11:00 PM)
Average temperature yesterday: 49 °F

Past Weeks' High & Low Weather Summary

 TemperatureHumidityPressure
High54 °F (Dec 18, 11:00 PM)100% (Dec 5, 11:00 AM)30.44 "Hg (Dec 5, 11:00 AM)
Low25 °F (Dec 9, 5:00 AM)75% (Dec 8, 3:00 PM)29.50 "Hg (Dec 12, 5:00 PM)
Average38 °F90%29.99 "Hg
* Reported Dec 5 11:00 AM — Dec 20 11:00 AM, Gotha, Weather by CustomWeather, © 2014

Note: Actual official high and low records may vary slightly from our data, if they occured in-between our weather recording intervals... More about our weather records

Advertising

Gotha weather history for previous 24 hours

 ConditionsComfort  
Time TempWeatherWind HumidityBarometerVisibility
11:00 AM
Dec 20
40 °FOvercast.16 mph75%30.05 "Hg25 mi
10:00 AM40 °FOvercast.14 mph75%30.06 "Hg25 mi
9:00 AM39 °FPartly sunny.12 mph77%30.09 "Hg25 mi
8:00 AM39 °FPassing clouds.13 mph78%30.09 "Hg25 mi
7:00 AM40 °FOvercast.9 mph77%30.10 "Hg31 mi
6:00 AM40 °FPassing clouds.10 mph77%30.09 "Hg31 mi
5:00 AM39 °FPassing clouds.9 mph78%30.10 "Hg31 mi
4:00 AM40 °FPassing clouds.10 mph79%30.09 "Hg31 mi
3:00 AM39 °FPassing clouds.10 mph79%30.09 "Hg31 mi
2:00 AM39 °FPassing clouds.10 mph82%30.07 "Hg31 mi
1:00 AM39 °FPassing clouds.8 mph82%30.07 "Hg31 mi
12:00 AM38 °FPassing clouds.7 mph83%30.06 "Hg31 mi
11:00 PM
Dec 19
39 °FPassing clouds.9 mph83%30.04 "Hg31 mi
10:00 PM40 °FPassing clouds.7 mph78%30.00 "Hg31 mi
9:00 PM42 °FPassing clouds.8 mph78%29.98 "Hg31 mi
8:00 PM45 °FPassing clouds.9 mph81%29.94 "Hg25 mi
7:00 PM46 °FOvercast.7 mph92%29.89 "Hg25 mi
6:00 PM46 °FLight rain. Overcast.10 mph82%29.86 "Hg19 mi
5:00 PM49 °FLight rain. Overcast.13 mph89%29.82 "Hg16 mi
4:00 PM50 °FLight rain. Overcast.14 mph87%29.80 "Hg19 mi
3:00 PM50 °FLight rain. Overcast.14 mph86%29.80 "Hg19 mi
2:00 PM50 °FLight rain. Overcast.15 mph86%29.80 "Hg19 mi
1:00 PM50 °FLight rain. Overcast.14 mph86%29.82 "Hg19 mi
12:00 PM49 °FLight rain. Overcast.15 mph89%29.83 "Hg14 mi
Weather by CustomWeather, © 2014

See weather overviewHow to use our weather pages